Simultaneous Nadir Overpasses (SNOs) Predictions

Prediction of SNOs between GOES-16 and AQUA Satellite Orbit:

Table of predicted SNOs for the next 14.0 days since TLE Epoch: 9/11/2020
Index Date Time (GOES-16) GOES-16 Lat,Lon AQUA Lat,Lon Distance(km) Time Diff (sec)
1 09/13/2020 18:35:29 0.05, -75.19 0.17, -74.64 62.32 80
2 09/15/2020 18:23:18 0.05, -75.19 0.82, -71.69 399.14 80
3 09/16/2020 06:44:33 -0.05, -75.18 0.27, -76.85 188.29 80
4 09/18/2020 06:29:41 -0.05, -75.20 -0.32, -73.88 149.38 80
5 09/18/2020 18:51:06 0.06, -75.22 -0.76, -79.08 439.36 80
6 09/20/2020 06:17:30 -0.05, -75.22 -0.98, -70.93 487.52 80
7 09/20/2020 18:38:54 0.06, -75.24 -0.15, -76.12 101.08 80
8 09/22/2020 18:29:23 0.06, -75.26 0.51, -73.17 237.49 80
9 09/23/2020 06:50:37 -0.06, -75.25 0.60, -78.33 349.40 80
10 09/25/2020 06:38:27 -0.07, -75.28 -0.07, -75.38 10.73 80
